Date,TemperatureHighF,TemperatureAvgF,TemperatureLowF,DewpointHighF,DewpointAvgF,DewpointLowF,HumidityHigh,HumidityAvg,HumidityLow,PressureMaxIn,PressureMinIn,WindSpeedMaxMPH,WindSpeedAvgMPH,GustSpeedMaxMPH,PrecipitationSumIn
2013-5-1,49.0,36.4,27.0,25.0,19.0,10.0,84,54,24,0.00,40.00,12,5,21,0.00
2013-5-2,57.0,44.4,31.0,24.0,16.7,12.0,66,36,17,0.00,40.00,10,5,22,0.00
2013-5-3,69.0,52.5,37.0,28.0,20.1,15.0,48,31,14,0.00,40.00,19,9,32,0.00
2013-5-4,62.0,51.8,44.0,34.0,26.0,22.0,52,38,25,0.00,40.00,14,7,22,0.00
2013-5-5,66.0,52.6,38.0,27.0,23.5,21.0,54,34,19,0.00,40.00,10,5,16,0.00
2013-5-6,71.0,57.4,41.0,29.0,25.2,22.0,56,32,16,0.00,40.00,12,8,24,0.00
2013-5-7,76.0,62.0,48.0,34.0,28.6,23.0,50,31,14,0.00,40.00,18,9,23,0.00
2013-5-8,70.0,59.5,50.0,39.0,34.3,32.0,56,40,25,0.00,40.00,18,10,29,0.00
2013-5-9,70.0,58.5,46.0,45.0,38.5,33.0,74,50,27,0.00,40.00,18,8,24,0.00
2013-5-10,71.0,58.3,47.0,44.0,35.3,-99.9,84,48,21,0.00,40.00,28,11,60,0.01
2013-5-11,70.0,56.8,34.0,31.0,27.0,22.0,75,35,19,0.00,40.00,10,4,19,0.01
2013-5-12,79.0,67.2,51.0,39.0,34.4,31.0,53,32,18,0.00,40.00,17,8,32,0.00
2013-5-13,89.0,75.0,60.0,42.0,34.4,25.0,43,25,11,0.00,40.00,12,6,29,0.00
2013-5-14,79.0,68.8,58.0,49.0,40.2,29.0,61,37,22,0.00,40.00,17,9,28,0.00
2013-5-15,78.0,64.0,48.0,46.0,37.7,31.0,65,40,22,0.00,40.00,21,8,32,0.00
2013-5-16,74.0,56.1,51.0,55.0,26.5,-99.9,98,63,32,0.00,40.00,25,9,41,0.16
2013-5-17,72.0,58.8,52.0,56.0,47.3,-99.9,100,82,51,0.00,40.00,27,7,169,0.17
2013-5-18,70.0,55.5,51.0,54.0,51.4,49.0,100,87,55,0.00,40.00,16,8,23,0.01
2013-5-19,55.0,51.8,49.0,51.0,49.0,46.0,96,90,80,0.00,40.00,21,15,31,0.09
2013-5-20,50.0,46.3,44.0,47.0,44.4,42.0,98,93,86,0.00,40.00,35,27,57,0.26
2013-5-21,57.0,50.1,45.0,45.0,41.1,35.0,98,72,50,0.00,40.00,23,15,32,0.05
2013-5-22,61.0,51.4,42.0,48.0,44.6,41.0,95,78,61,0.00,40.00,24,9,38,0.00
2013-5-23,70.0,58.6,50.0,52.0,47.6,45.0,86,68,48,0.00,40.00,44,35,68,0.00
2013-5-24,84.0,71.4,59.0,68.0,55.6,50.0,82,60,31,0.00,40.00,42,16,62,0.00
2013-5-25,91.0,78.7,65.0,70.0,53.9,27.0,89,53,10,0.00,40.00,19,11,30,0.00
2013-5-26,80.0,71.0,59.0,74.0,62.4,49.0,100,77,36,0.00,40.00,19,10,46,1.44
2013-5-27,69.0,61.8,56.0,62.0,52.7,49.0,97,73,51,0.00,40.00,25,10,42,1.05
2013-5-28,84.0,73.3,64.0,67.0,57.2,45.0,91,61,28,0.00,40.00,17,9,34,0.09
2013-5-29,75.0,69.9,66.0,70.0,67.3,64.0,100,92,71,0.00,40.00,16,6,26,0.39
2013-5-30,76.0,71.2,66.0,75.0,69.9,65.0,100,96,93,0.00,40.00,36,26,56,1.60
2013-5-31,78.0,75.4,72.0,75.0,71.4,66.0,98,88,77,0.00,40.00,42,33,63,0.39